EST,Max TemperatureF,Mean TemperatureF,Min TemperatureF,Max Dew PointF,MeanDew PointF,Min DewpointF,Max Humidity, Mean Humidity, Min Humidity, Max Sea Level PressureIn, Mean Sea Level PressureIn, Min Sea Level PressureIn, Max VisibilityMiles, Mean VisibilityMiles, Min VisibilityMiles, Max Wind SpeedMPH, Mean Wind SpeedMPH, Max Gust SpeedMPH,PrecipitationIn, CloudCover, Events, WindDirDegrees
2012-11-1,62,48,33,32,27,23,87,46,22,29.96,29.89,29.84,10,10,10,15,6,22,0.00,0,,261
2012-11-2,73,55,37,43,35,28,81,53,27,30.01,29.94,29.87,10,10,10,18,6,30,0.00,1,,244
2012-11-3,75,56,37,45,38,34,93,55,23,30.15,30.06,30.01,10,10,10,9,2,,0.00,0,,193
2012-11-4,71,61,51,55,49,43,100,71,46,30.04,29.99,29.94,10,10,10,9,5,,0.00,1,Rain,334
2012-11-5,62,54,46,50,39,34,94,62,34,30.12,30.06,30.00,10,10,10,12,6,,0.00,2,,49
2012-11-6,51,46,41,37,36,32,81,68,47,30.10,30.03,29.97,10,10,10,16,7,22,0.02,6,Rain,43
2012-11-7,46,42,37,43,38,34,100,87,70,30.01,29.96,29.91,10,8,2,9,4,,0.01,7,Rain,306
2012-11-8,64,48,32,43,33,28,100,66,26,30.19,30.12,30.02,10,8,1,13,3,16,0.00,0,,302
2012-11-9,68,50,32,36,33,30,100,63,24,30.32,30.25,30.19,10,10,10,8,3,,0.00,0,,278
2012-11-10,73,53,33,41,35,32,100,61,22,30.40,30.35,30.29,10,10,7,9,2,,0.00,0,,199
2012-11-11,73,55,37,57,46,36,100,68,46,30.50,30.43,30.40,10,10,10,9,3,,0.00,3,,132
2012-11-12,75,64,53,66,60,54,100,86,53,30.39,30.30,30.19,10,9,4,13,4,23,0.01,4,Rain,171
2012-11-13,64,53,42,63,48,36,100,83,47,30.39,30.29,30.20,10,10,5,15,7,21,0.00,6,Rain,38
2012-11-14,55,46,37,37,33,30,93,63,38,30.47,30.39,30.32,10,10,10,16,10,23,0.00,6,,43
2012-11-15,51,44,37,41,40,36,100,87,58,30.36,30.31,30.25,10,9,2,20,8,26,1.05,6,Rain-Thunderstorm,22
2012-11-16,59,46,32,41,36,32,100,75,42,30.39,30.32,30.28,10,9,0,9,6,,0.00,2,Fog,30
2012-11-17,59,47,35,36,31,28,93,59,31,30.47,30.42,30.39,10,10,7,21,10,25,0.00,2,,32
2012-11-18,59,50,42,46,39,30,87,62,47,30.44,30.39,30.33,10,10,7,20,12,25,0.00,6,Rain,23
2012-11-19,64,55,44,50,46,43,100,73,59,30.35,30.27,30.22,10,10,7,15,11,22,0.00,5,,18
2012-11-20,62,52,41,46,44,41,100,85,52,30.22,30.16,30.09,10,10,7,7,4,,0.00,1,,22
2012-11-21,64,50,37,46,39,34,100,73,32,30.21,30.16,30.11,10,9,1,10,3,17,0.00,0,,16
2012-11-22,64,50,35,36,34,32,93,62,30,30.30,30.23,30.19,10,10,5,10,5,,0.00,0,,15
2012-11-23,69,51,33,46,40,34,100,68,35,30.21,30.09,29.98,10,10,10,15,4,20,0.00,0,,234
2012-11-24,59,46,32,34,27,18,100,50,27,30.16,30.07,30.01,10,10,10,12,5,17,0.00,0,,325
2012-11-25,57,42,26,30,25,19,93,58,27,30.23,30.15,30.09,10,10,10,12,4,18,0.00,0,,204
2012-11-26,68,50,32,32,29,23,87,51,23,30.24,30.18,30.14,10,10,10,7,4,,0.00,0,,209
2012-11-27,53,50,46,52,43,28,100,75,38,30.23,30.18,30.12,10,9,4,9,5,,0.00,8,Rain,229
2012-11-28,55,45,35,50,40,34,100,83,47,30.41,30.34,30.22,10,8,0,9,5,,0.00,3,Fog,57
2012-11-29,59,46,32,43,34,32,100,75,36,30.50,30.43,30.39,10,9,5,8,2,,0.00,0,,156
2012-11-30,64,48,32,48,39,32,100,80,45,30.44,30.38,30.32,10,10,10,10,2,,0.00,4,,198